Volver al catálogo

STARLINK-34703

ActivoComunicacionesSSO
NORAD 65387·PAYLOAD·🇺🇸 United States

Lanzado Aug 30, 2025 desde Vandenberg Space Force Base

Loading…

Próximos Pases (próximas 24 horas)

TLE

ActualizadoSource: CelesTrak SupGP

Época: Sep 14, 2026, 14:46 UTC

1 65387C 25191J   26257.61576389  .00024161  00000+0  74988-3 0  2573
2 65387  97.2845 123.7857 0001859  86.5666 176.0048 15.33431586    15

Sigue STARLINK-34703 en tiempo real con AllMySat

Download on the App Store